Regional Weather Roundup
Issued by NWS Kansas City/Pleasant Hill, MO

Home | Current Version | Previous Version | Text Only | Print | Product List | Glossary On
Versions: 1 2 3 4 5 6 7 8 9 10 11 12 13 14 15 16 17 18 19 20 21 22 23 24 25 26 27 28 29 30 31 32 33 34 35 36 37 38 39 40 41 42 43 44 45 46 47 48 49 50
000
ASUS43 KEAX 271911
RWREAX

WEATHER ROUNDUP FOR EASTERN KANSAS AND NORTHWEST MISSOURI
NATIONAL WEATHER SERVICE KANSAS CITY/PLEASANT HILL MO
100 PM CST SAT DEC 27 2014

KSZ040-057-103>105-MOZ028-029-037-043-272000-
...KANSAS CITY METROPOLITAN AREA...

CITY           SKY/WX    TMP DP  RH WIND       PRES   REMARKS
K.C. INTL      PTSUNNY   30  22  72 W9        30.23F WCI  22
K.C. DOWNTOWN  CLOUDY    32  23  69 NW10      30.23F WCI  24
LEES SUMMIT    CLOUDY    32  24  72 NW10      30.22F WCI  24
OLATHE - IXD   CLOUDY    31  22  69 NW10      30.23F WCI  22
OLATHE - OJC   CLOUDY    32  23  69 NW13      30.21F WCI  22
LAWRENCE       PTSUNNY   31  21  66 NW13      30.25F WCI  21

$$

MOZ001>008-011>017-020>025-030>033-038>040-044>046-053-054-272000-
...NORTHERN AND CENTRAL MISSOURI...

CITY           SKY/WX    TMP DP  RH WIND       PRES   REMARKS
ST. JOSEPH     CLOUDY    29  21  72 NW13      30.25F WCI  19
MOSBY          CLOUDY    32  23  69 NW8       30.23F WCI  25
WARRENSBURG    CLOUDY    32  27  80 W9        30.21S WCI  24
WHITEMAN AFB   CLOUDY    34  27  76 NW8       30.19F WCI  27
CLINTON        CLOUDY    34  32  93 NW10      30.21F WCI  26
SEDALIA        CLOUDY    35  28  75 NW14      30.20F WCI  26
WARSAW         NOT AVBL
MARSHALL       CLOUDY    36  30  80 NW9       30.22F WCI  29
CHILLICOTHE      N/A     32  24  72 NW5       30.22S WCI  27
KIRKSVILLE     CLOUDY    33  26  75 W10       30.18F WCI  25

$$

MOZ041-047>049-056>058-063>065-088>090-097-272000-
...EASTERN AND SOUTHERN MISSOURI...

CITY           SKY/WX    TMP DP  RH WIND       PRES   REMARKS
ST. LOUIS INTL LGT RAIN  41  35  79 W14G21    30.17R WCI  33
SPIRIT OF STL  LGT RAIN  40  37  89 W9        30.18R FOG     WCI  34
COLUMBIA       LGT SNOW  35  32  88 NW9       30.17F FOG     WCI  28
JEFFERSON CITY CLOUDY    36  34  92 NW9       30.19F WCI  29
HANNIBAL       FLURRIES  39  30  70 W9        30.15F WCI  33
ROLLA          MIX PCPN  36  33  89 W7        30.14F WCI  30
LEBANON        MIX PCPN  34  32  93 W7        30.17R WCI  28
OSAGE BEACH    CLOUDY    36  32  87 W5        30.17F WCI  32
SPRINGFIELD    CLOUDY    34  31  88 NW7       30.19S WCI  28
BRANSON        CLOUDY    36  32  87 NW5       30.19F WCI  32
NEVADA         CLOUDY    32  28  86 NW8       30.24F WCI  25
JOPLIN         LGT SNOW  31  29  92 NW8       30.24F FOG     WCI  23
WEST PLAINS    CLOUDY    40  35  83 NW8       30.14F WCI  34

$$

IAZ060-094-KSZ022-034>040-054-083-096-NEZ052-066-093-272000-
...KANSAS...SOUTHEAST NEBRASKA AND IOWA...

CITY           SKY/WX    TMP DP  RH WIND       PRES   REMARKS
TOPEKA         MOSUNNY   35  20  54 NW12G20   30.26F WCI  27
MANHATTAN      SUNNY     32  16  51 NW9       30.27F WCI  24
EMPORIA        SUNNY     32  17  54 NW12      30.25F WCI  23
CHANUTE        PTSUNNY   33  22  63 NW13      30.26F WCI  24
WICHITA        MOSUNNY   34  16  47 N15G23    30.27F WCI  24
OMAHA          MOSUNNY   27  18  69 NW12      30.24F WCI  17
LINCOLN        SUNNY     26  16  65 NW10      30.26F WCI  16
FALLS CITY     PTSUNNY   29  19  66 NW10      30.24F WCI  20
LAMONI         CLOUDY    28  23  81 NW15      30.18F WCI  16
DES MOINES     PTSUNNY   29  21  72 NW15      30.17F WCI  18

$$




USA.gov is the U.S. government's official web portal to all federal, state and local government web resources and services.